This demonstration page uses our WeatherBlox Daily Observations layout. Learn more.

Left ArrowRight Arrow

39.92423, -83.80882

Hourly Observations for November 11, 2018

Temp ( °F °C ) Dew Point ( °F °C ) Humidity (%) Winds ( mph kmh ) Pressure ( in mb ) Visibility ( mi km ) Precip ( " mm )
12:56 am 00:56 Clear 22 -5.6 20 -6.7 92 92 SSE 5 7 30.42 1030 10 16.0934 N/A
1:56 am 01:56 Clear 18 -7.8 17 -8.3 96 96 E 5 7 30.43 1030 10 16.0934 N/A
2:56 am 02:56 Clear 17 -8.3 16 -8.9 95 95 E 3 6 30.43 1030 10 16.0934 N/A
3:56 am 03:56 Clear 18 -7.8 17 -8.3 96 96 E 3 6 30.43 1031 10 16.0934 N/A
4:56 am 04:56 Clear 19 -7.2 17 -8.3 92 92 SE 3 6 30.42 1030 10 16.0934 N/A
5:56 am 05:56 Clear 17 -8.3 16 -8.9 95 95 ESE 3 6 30.42 1030 10 16.0934 N/A
6:56 am 06:56 Clear 18 -7.8 17 -8.3 96 96 SE 5 7 30.42 1030 10 16.0934 N/A
7:56 am 07:56 Sunny 23 -5 20 -6.7 88 88 SSE 6 9 30.42 1030 10 16.0934 N/A
8:56 am 08:56 Sunny 28 -2.2 23 -5 81 81 S 7 11 30.42 1030 10 16.0934 N/A
9:56 am 09:56 Sunny 31 -0.6 25 -3.9 79 79 SSE 9 15 30.4 1030 10 16.0934 N/A
10:56 am 10:56 Sunny 34 1.1 23 -5 64 64 SSE 10 17 30.41 1030 10 16.0934 N/A
11:56 am 11:56 Sunny 36 2.2 22 -5.6 57 57 SSE 9 15 30.37 1029 10 16.0934 N/A
12:56 pm 12:56 Mostly Sunny 38 3.3 23 -5 55 55 S 8 13 30.35 1028 10 16.0934 N/A
1:56 pm 13:56 Sunny 39 3.9 22 -5.6 50 50 S 6 9 30.33 1027 10 16.0934 N/A
2:56 pm 14:56 Mostly Cloudy 42 5.6 23 -5 47 47 S 9 15 30.32 1027 10 16.0934 N/A
3:56 pm 15:56 Sunny 41 5 21 -6.1 45 45 S 7 11 30.3 1026 10 16.0934 N/A
4:56 pm 16:56 Sunny 38 3.3 21 -6.1 51 51 S 3 6 30.32 1027 10 16.0934 N/A
5:56 pm 17:56 Clear 37 2.8 22 -5.6 54 54 S 3 6 30.32 1027 10 16.0934 N/A
6:56 pm 18:56 Mostly Clear 31 -0.6 23 -5 72 72 N N/A 30.32 1027 10 16.0934 N/A
7:56 pm 19:56 Cloudy 31 -0.6 27 -2.8 85 85 SSE 3 6 30.32 1027 10 16.0934 N/A
8:56 pm 20:56 Mostly Cloudy 29 -1.7 25 -3.9 85 85 N N/A 30.33 1027 10 16.0934 N/A
9:56 pm 21:56 Partly Cloudy 27 -2.8 24 -4.4 89 89 E 3 6 30.33 1027 10 16.0934 N/A
10:56 pm 22:56 Mostly Clear 26 -3.3 24 -4.4 92 92 ESE 5 7 30.33 1027 10 16.0934 N/A
11:56 pm 23:56 Cloudy 29 -1.7 27 -2.8 92 92 SSE 5 7 30.31 1027 10 16.0934 N/A

Powered by AerisWeather